Time,TemperatureF,DewpointF,PressureIn,WindDirection,WindDirectionDegrees,WindSpeedMPH,WindSpeedGustMPH,Humidity,HourlyPrecipIn,Conditions,Clouds,dailyrainin,SolarRadiationWatts/m^2,SoftwareType,DateUTC
2013-03-08 00:00:00,32.3,24.6,30.29,NNE,13,0.0,0.0,73,0.00,,,0.00,0.00,VWS V14.01,2013-03-08 05:00:00,
2013-03-08 00:01:00,32.2,24.5,30.29,NNE,13,0.0,0.0,73,0.00,,,0.00,0.00,VWS V14.01,2013-03-08 05:01:00,
2013-03-08 00:06:00,32.0,24.7,30.28,NNE,13,0.0,0.0,74,0.00,,,0.00,0.00,VWS V14.01,2013-03-08 05:06:00,
2013-03-08 00:11:00,31.8,24.5,30.29,NNE,13,0.0,0.0,74,0.00,,,0.00,0.00,VWS V14.01,2013-03-08 05:11:00,
2013-03-08 00:16:00,31.6,24.3,30.28,NNE,13,0.0,0.0,74,0.00,,,0.00,0.00,VWS V14.01,2013-03-08 05:16:00,
2013-03-08 00:21:00,31.4,24.1,30.28,NNE,13,0.0,0.0,74,0.00,,,0.00,0.00,VWS V14.01,2013-03-08 05:21:00,
2013-03-08 00:26:00,31.1,24.1,30.28,NNE,13,0.0,0.0,75,0.00,,,0.00,0.00,VWS V14.01,2013-03-08 05:26:00,
2013-03-08 00:31:00,30.9,23.9,30.28,NNE,13,0.0,0.0,75,0.00,,,0.00,0.00,VWS V14.01,2013-03-08 05:31:00,
2013-03-08 00:36:00,30.7,24.0,30.28,NNE,13,0.0,0.0,76,0.00,,,0.00,0.00,VWS V14.01,2013-03-08 05:36:00,
2013-03-08 00:41:00,30.5,23.9,30.27,NNE,13,0.0,0.0,76,0.00,,,0.00,0.00,VWS V14.01,2013-03-08 05:41:00,
2013-03-08 00:46:00,30.2,23.9,30.28,NNE,13,0.0,0.0,77,0.00,,,0.00,0.00,VWS V14.01,2013-03-08 05:46:00,
2013-03-08 00:51:00,30.0,23.7,30.27,NNE,13,0.0,0.0,77,0.00,,,0.00,0.00,VWS V14.01,2013-03-08 05:51:00,
2013-03-08 00:56:00,29.9,23.6,30.28,NNE,13,0.0,0.0,77,0.00,,,0.00,0.00,VWS V14.01,2013-03-08 05:56:00,
2013-03-08 01:01:00,29.7,23.7,30.28,NNE,13,0.0,0.0,78,0.00,,,0.00,0.00,VWS V14.01,2013-03-08 06:01:00,
2013-03-08 01:06:00,29.5,23.5,30.28,NNE,13,0.0,0.0,78,0.00,,,0.00,0.00,VWS V14.01,2013-03-08 06:06:00,
2013-03-08 01:11:00,29.3,23.6,30.28,NNE,13,0.0,0.0,79,0.00,,,0.00,0.00,VWS V14.01,2013-03-08 06:11:00,
2013-03-08 01:16:00,29.2,23.5,30.28,NNE,13,0.0,0.0,79,0.00,,,0.00,0.00,VWS V14.01,2013-03-08 06:16:00,
2013-03-08 01:21:00,29.0,23.6,30.28,NNE,13,0.0,0.0,80,0.00,,,0.00,0.00,VWS V14.01,2013-03-08 06:21:00,
2013-03-08 01:26:00,28.9,23.5,30.28,NNE,13,0.0,0.0,80,0.00,,,0.00,0.00,VWS V14.01,2013-03-08 06:26:00,
2013-03-08 01:31:00,28.8,23.4,30.28,NNE,13,0.0,0.0,80,0.00,,,0.00,0.00,VWS V14.01,2013-03-08 06:31:00,
2013-03-08 01:36:00,28.7,23.0,30.28,NNE,13,0.0,0.0,79,0.00,,,0.00,0.00,VWS V14.01,2013-03-08 06:36:00,
2013-03-08 01:41:00,28.5,23.1,30.28,NNE,13,0.0,0.0,80,0.00,,,0.00,0.00,VWS V14.01,2013-03-08 06:41:00,
2013-03-08 01:46:00,28.3,23.2,30.27,NNE,13,0.0,0.0,81,0.00,,,0.00,0.00,VWS V14.01,2013-03-08 06:46:00,
2013-03-08 01:51:00,28.3,23.2,30.27,NNE,13,0.0,0.0,81,0.00,,,0.00,0.00,VWS V14.01,2013-03-08 06:51:00,
2013-03-08 01:56:00,28.1,22.7,30.27,NNE,13,0.0,0.0,80,0.00,,,0.00,0.00,VWS V14.01,2013-03-08 06:56:00,
2013-03-08 02:01:00,28.0,22.9,30.27,NNE,13,0.0,0.0,81,0.00,,,0.00,0.00,VWS V14.01,2013-03-08 07:01:00,
2013-03-08 02:06:00,27.9,22.8,30.27,NNE,13,0.0,0.0,81,0.00,,,0.00,0.00,VWS V14.01,2013-03-08 07:06:00,
2013-03-08 02:11:00,27.8,22.7,30.26,NNE,13,0.0,0.0,81,0.00,,,0.00,0.00,VWS V14.01,2013-03-08 07:11:00,
2013-03-08 02:16:00,27.7,22.9,30.26,NNE,13,0.0,0.0,82,0.00,,,0.00,0.00,VWS V14.01,2013-03-08 07:16:00,
2013-03-08 02:21:00,27.6,22.8,30.26,NNE,13,0.0,0.0,82,0.00,,,0.00,0.00,VWS V14.01,2013-03-08 07:21:00,
2013-03-08 02:26:00,27.4,22.6,30.26,NNE,13,0.0,0.0,82,0.00,,,0.00,0.00,VWS V14.01,2013-03-08 07:26:00,
2013-03-08 02:31:00,27.4,22.6,30.26,NNE,13,0.0,0.0,82,0.00,,,0.00,0.00,VWS V14.01,2013-03-08 07:31:00,
2013-03-08 02:36:00,27.2,22.7,30.26,NNE,13,0.0,0.0,83,0.00,,,0.00,0.00,VWS V14.01,2013-03-08 07:36:00,
2013-03-08 02:41:00,27.2,22.7,30.26,NNE,13,0.0,0.0,83,0.00,,,0.00,0.00,VWS V14.01,2013-03-08 07:41:00,
2013-03-08 02:46:00,27.1,22.9,30.26,NNE,13,0.0,0.0,84,0.00,,,0.00,0.00,VWS V14.01,2013-03-08 07:46:00,
2013-03-08 02:51:00,27.0,22.8,30.26,NNE,13,0.0,0.0,84,0.00,,,0.00,0.00,VWS V14.01,2013-03-08 07:51:00,
2013-03-08 02:56:00,27.0,22.8,30.26,NNE,13,0.0,0.0,84,0.00,,,0.00,0.00,VWS V14.01,2013-03-08 07:56:00,
2013-03-08 03:01:00,26.9,23.0,30.26,NNE,13,0.0,0.0,85,0.00,,,0.00,0.00,VWS V14.01,2013-03-08 08:01:00,
2013-03-08 03:06:00,26.9,23.0,30.26,NNE,13,0.0,0.0,85,0.00,,,0.00,0.00,VWS V14.01,2013-03-08 08:06:00,
2013-03-08 03:11:00,26.8,22.9,30.26,NNE,13,0.0,0.0,85,0.00,,,0.00,0.00,VWS V14.01,2013-03-08 08:11:00,
2013-03-08 03:16:00,26.7,22.8,30.26,NNE,13,0.0,0.0,85,0.00,,,0.00,0.00,VWS V14.01,2013-03-08 08:16:00,
2013-03-08 03:21:00,26.6,23.0,30.26,NNE,13,0.0,0.0,86,0.00,,,0.00,0.00,VWS V14.01,2013-03-08 08:21:00,
2013-03-08 03:26:00,26.6,23.0,30.26,NNE,13,0.0,0.0,86,0.00,,,0.00,0.00,VWS V14.01,2013-03-08 08:26:00,
2013-03-08 03:31:00,26.5,22.9,30.25,NNE,13,0.0,0.0,86,0.00,,,0.00,0.00,VWS V14.01,2013-03-08 08:31:00,
2013-03-08 03:36:00,26.4,22.8,30.25,NNE,13,0.0,0.0,86,0.00,,,0.00,0.00,VWS V14.01,2013-03-08 08:36:00,
2013-03-08 03:41:00,26.4,22.8,30.25,NNE,13,0.0,0.0,86,0.00,,,0.00,0.00,VWS V14.01,2013-03-08 08:41:00,
2013-03-08 03:46:00,26.4,22.8,30.25,NNE,13,0.0,0.0,86,0.00,,,0.00,0.00,VWS V14.01,2013-03-08 08:46:00,
2013-03-08 03:51:00,26.4,22.8,30.25,NNE,13,0.0,0.0,86,0.00,,,0.00,0.00,VWS V14.01,2013-03-08 08:51:00,
2013-03-08 03:56:00,26.4,22.8,30.25,NNE,13,0.0,0.0,86,0.00,,,0.00,0.00,VWS V14.01,2013-03-08 08:56:00,
2013-03-08 04:01:00,26.4,22.8,30.25,NNE,13,0.0,0.0,86,0.00,,,0.00,0.00,VWS V14.01,2013-03-08 09:01:00,
2013-03-08 04:06:00,26.1,23.0,30.24,NNE,13,0.0,0.0,88,0.00,,,0.00,0.00,VWS V14.01,2013-03-08 09:06:00,
2013-03-08 04:11:00,26.1,23.0,30.25,NNE,13,0.0,0.0,88,0.00,,,0.00,0.00,VWS V14.01,2013-03-08 09:11:00,
2013-03-08 04:16:00,26.1,23.0,30.25,NNE,13,0.0,0.0,88,0.00,,,0.00,0.00,VWS V14.01,2013-03-08 09:16:00,
2013-03-08 04:21:00,26.0,22.9,30.25,NNE,13,0.0,0.0,88,0.00,,,0.00,0.00,VWS V14.01,2013-03-08 09:21:00,
2013-03-08 04:26:00,26.0,22.9,30.25,NNE,13,0.0,0.0,88,0.00,,,0.00,0.00,VWS V14.01,2013-03-08 09:26:00,
2013-03-08 04:31:00,25.9,22.8,30.25,NNE,13,0.0,0.0,88,0.00,,,0.00,0.00,VWS V14.01,2013-03-08 09:31:00,
2013-03-08 04:36:00,25.8,22.7,30.26,NNE,13,0.0,0.0,88,0.00,,,0.00,0.00,VWS V14.01,2013-03-08 09:36:00,
2013-03-08 04:41:00,25.8,22.7,30.26,NNE,13,0.0,0.0,88,0.00,,,0.00,0.00,VWS V14.01,2013-03-08 09:41:00,
2013-03-08 04:46:00,25.7,22.6,30.26,NNE,13,0.0,0.0,88,0.00,,,0.00,0.00,VWS V14.01,2013-03-08 09:46:00,
2013-03-08 04:51:00,25.7,22.6,30.26,NNE,13,0.0,0.0,88,0.00,,,0.00,0.00,VWS V14.01,2013-03-08 09:51:00,
2013-03-08 04:56:00,25.7,22.9,30.26,NNE,13,0.0,0.0,89,0.00,,,0.00,0.00,VWS V14.01,2013-03-08 09:56:00,
2013-03-08 05:01:00,25.7,22.9,30.26,NNE,13,0.0,0.0,89,0.00,,,0.00,0.00,VWS V14.01,2013-03-08 10:01:00,
2013-03-08 05:06:00,25.7,22.9,30.26,NNE,13,0.0,0.0,89,0.00,,,0.00,0.00,VWS V14.01,2013-03-08 10:06:00,
2013-03-08 05:11:00,25.6,22.8,30.27,NNE,13,0.0,0.0,89,0.00,,,0.00,0.00,VWS V14.01,2013-03-08 10:11:00,
2013-03-08 05:16:00,25.6,22.8,30.27,NNE,13,0.0,0.0,89,0.00,,,0.00,0.00,VWS V14.01,2013-03-08 10:16:00,
2013-03-08 05:21:00,25.5,22.7,30.27,NNE,13,0.0,0.0,89,0.00,,,0.00,0.00,VWS V14.01,2013-03-08 10:21:00,
2013-03-08 05:26:00,25.4,22.6,30.27,NNE,13,0.0,0.0,89,0.00,,,0.00,0.00,VWS V14.01,2013-03-08 10:26:00,
2013-03-08 05:31:00,25.4,22.6,30.28,NNE,13,0.0,0.0,89,0.00,,,0.00,0.00,VWS V14.01,2013-03-08 10:31:00,
2013-03-08 05:36:00,25.3,22.5,30.29,NNE,13,0.0,0.0,89,0.00,,,0.00,0.00,VWS V14.01,2013-03-08 10:36:00,
2013-03-08 05:41:00,25.2,22.4,30.29,NNE,13,0.0,0.0,89,0.00,,,0.00,0.00,VWS V14.01,2013-03-08 10:41:00,
2013-03-08 05:46:00,25.2,22.4,30.29,NNE,13,0.0,0.0,89,0.00,,,0.00,0.00,VWS V14.01,2013-03-08 10:46:00,
2013-03-08 05:51:00,25.1,22.3,30.29,NNE,13,0.0,0.0,89,0.00,,,0.00,0.00,VWS V14.01,2013-03-08 10:51:00,
2013-03-08 05:56:00,25.1,22.6,30.29,NNE,13,0.0,0.0,90,0.00,,,0.00,0.00,VWS V14.01,2013-03-08 10:56:00,
2013-03-08 06:01:00,25.1,22.6,30.29,NNE,13,0.0,0.0,90,0.00,,,0.00,0.00,VWS V14.01,2013-03-08 11:01:00,
2013-03-08 06:06:00,25.1,22.6,30.29,NNE,13,0.0,0.0,90,0.00,,,0.00,0.00,VWS V14.01,2013-03-08 11:06:00,
2013-03-08 06:11:00,25.1,22.6,30.29,NNE,13,0.0,0.0,90,0.00,,,0.00,0.00,VWS V14.01,2013-03-08 11:11:00,
2013-03-08 06:16:00,25.0,22.5,30.28,NNE,13,0.0,0.0,90,0.00,,,0.00,0.00,VWS V14.01,2013-03-08 11:16:00,
2013-03-08 06:21:00,24.9,22.4,30.28,NNE,13,0.0,0.0,90,0.00,,,0.00,0.00,VWS V14.01,2013-03-08 11:21:00,
2013-03-08 06:26:00,24.9,22.4,30.29,NNE,13,0.0,0.0,90,0.00,,,0.00,0.00,VWS V14.01,2013-03-08 11:26:00,
2013-03-08 06:31:00,24.8,22.3,30.29,NNE,13,0.0,0.0,90,0.00,,,0.00,0.00,VWS V14.01,2013-03-08 11:31:00,
2013-03-08 06:36:00,24.8,22.3,30.29,NNE,13,0.0,0.0,90,0.00,,,0.00,0.00,VWS V14.01,2013-03-08 11:36:00,
2013-03-08 06:41:00,24.7,22.2,30.29,NNE,13,0.0,0.0,90,0.00,,,0.00,0.00,VWS V14.01,2013-03-08 11:41:00,
2013-03-08 06:46:00,24.6,22.1,30.29,NNE,13,0.0,0.0,90,0.00,,,0.00,5.00,VWS V14.01,2013-03-08 11:46:00,
2013-03-08 06:51:00,24.6,22.1,30.29,NNE,13,0.0,0.0,90,0.00,,,0.00,7.00,VWS V14.01,2013-03-08 11:51:00,
2013-03-08 06:56:00,24.5,22.0,30.29,NNE,13,0.0,0.0,90,0.00,,,0.00,11.00,VWS V14.01,2013-03-08 11:56:00,
2013-03-08 07:01:00,24.4,21.9,30.30,NNE,12,0.0,0.0,90,0.00,,,0.00,14.00,VWS V14.01,2013-03-08 12:01:00,
2013-03-08 07:06:00,24.4,21.9,30.30,NNE,13,0.0,0.0,90,0.00,,,0.00,18.00,VWS V14.01,2013-03-08 12:06:00,
2013-03-08 07:11:00,24.3,21.8,30.30,NNE,13,0.0,0.0,90,0.00,,,0.00,21.00,VWS V14.01,2013-03-08 12:11:00,
2013-03-08 07:16:00,24.3,22.1,30.30,NNE,13,0.0,0.0,91,0.00,,,0.00,30.00,VWS V14.01,2013-03-08 12:16:00,
2013-03-08 07:21:00,24.4,22.2,30.30,NNE,13,0.0,0.0,91,0.00,,,0.00,32.00,VWS V14.01,2013-03-08 12:21:00,
2013-03-08 07:26:00,24.4,22.2,30.30,NNE,13,0.0,0.0,91,0.00,,,0.00,56.00,VWS V14.01,2013-03-08 12:26:00,
2013-03-08 07:31:00,24.5,22.2,30.30,NNE,13,0.0,1.0,91,0.00,,,0.00,60.00,VWS V14.01,2013-03-08 12:31:00,
2013-03-08 07:36:00,24.9,22.9,30.30,NNE,13,0.0,0.0,92,0.00,,,0.00,65.00,VWS V14.01,2013-03-08 12:36:00,
2013-03-08 07:41:00,25.1,23.1,30.30,NNE,13,0.0,0.0,92,0.00,,,0.00,67.00,VWS V14.01,2013-03-08 12:41:00,
2013-03-08 07:46:00,25.4,23.7,30.31,NNE,13,0.0,0.0,93,0.00,,,0.00,37.00,VWS V14.01,2013-03-08 12:46:00,
2013-03-08 07:51:00,25.7,24.0,30.31,NNE,13,0.0,0.0,93,0.00,,,0.00,39.00,VWS V14.01,2013-03-08 12:51:00,
2013-03-08 07:56:00,26.0,24.3,30.31,NNE,13,0.0,0.0,93,0.00,,,0.00,105.00,VWS V14.01,2013-03-08 12:56:00,
2013-03-08 08:01:00,26.3,24.6,30.31,NNE,13,0.0,0.0,93,0.00,,,0.00,155.00,VWS V14.01,2013-03-08 13:01:00,
2013-03-08 08:06:00,26.9,25.4,30.31,NNE,12,0.0,0.0,94,0.00,,,0.00,160.00,VWS V14.01,2013-03-08 13:06:00,
2013-03-08 08:11:00,27.4,25.9,30.31,NNE,13,0.0,0.0,94,0.00,,,0.00,202.00,VWS V14.01,2013-03-08 13:11:00,
2013-03-08 08:16:00,28.2,26.7,30.31,NNE,13,0.0,0.0,94,0.00,,,0.00,193.00,VWS V14.01,2013-03-08 13:16:00,
2013-03-08 08:21:00,29.0,27.8,30.31,North,355,0.0,0.0,95,0.00,,,0.00,127.00,VWS V14.01,2013-03-08 13:21:00,
2013-03-08 08:26:00,29.7,28.2,30.32,North,355,0.0,1.0,94,0.00,,,0.00,111.00,VWS V14.01,2013-03-08 13:26:00,
2013-03-08 08:31:00,30.6,29.1,30.32,NNE,23,0.0,1.0,94,0.00,,,0.00,77.00,VWS V14.01,2013-03-08 13:31:00,
2013-03-08 08:36:00,31.5,29.5,30.32,NNE,23,0.0,0.0,92,0.00,,,0.00,114.00,VWS V14.01,2013-03-08 13:36:00,
2013-03-08 08:41:00,32.6,29.5,30.32,NNW,333,0.0,2.0,88,0.00,,,0.00,116.00,VWS V14.01,2013-03-08 13:41:00,
2013-03-08 08:46:00,33.9,29.0,30.32,NW,311,0.0,1.0,82,0.00,,,0.00,253.00,VWS V14.01,2013-03-08 13:46:00,
2013-03-08 08:51:00,35.0,28.5,30.33,West,268,1.0,2.0,77,0.00,,,0.00,297.00,VWS V14.01,2013-03-08 13:51:00,
2013-03-08 08:56:00,36.2,28.7,30.33,North,11,0.0,3.0,74,0.00,,,0.00,279.00,VWS V14.01,2013-03-08 13:56:00,
2013-03-08 09:01:00,37.2,28.3,30.33,West,266,0.0,2.0,70,0.00,,,0.00,264.00,VWS V14.01,2013-03-08 14:01:00,
2013-03-08 09:06:00,38.0,28.4,30.32,NW,321,0.0,2.0,68,0.00,,,0.00,165.00,VWS V14.01,2013-03-08 14:06:00,
2013-03-08 09:11:00,38.6,28.6,30.32,North,351,2.0,4.0,67,0.00,,,0.00,278.00,VWS V14.01,2013-03-08 14:11:00,
2013-03-08 09:16:00,39.3,28.2,30.33,NE,36,0.0,1.0,64,0.00,,,0.00,200.00,VWS V14.01,2013-03-08 14:16:00,
2013-03-08 09:21:00,39.6,28.1,30.33,NNE,17,7.0,7.0,63,0.00,,,0.00,97.00,VWS V14.01,2013-03-08 14:21:00,
2013-03-08 09:26:00,39.8,27.9,30.33,NE,35,4.0,4.0,62,0.00,,,0.00,100.00,VWS V14.01,2013-03-08 14:26:00,
2013-03-08 09:31:00,40.0,27.6,30.33,NNE,23,2.0,3.0,61,0.00,,,0.00,441.00,VWS V14.01,2013-03-08 14:31:00,
2013-03-08 09:36:00,40.4,27.6,30.33,WSW,246,9.0,9.0,60,0.00,,,0.00,513.00,VWS V14.01,2013-03-08 14:36:00,
2013-03-08 09:41:00,41.1,27.5,30.32,NNW,336,4.0,9.0,58,0.00,,,0.00,526.00,VWS V14.01,2013-03-08 14:41:00,
2013-03-08 09:46:00,41.5,27.0,30.31,NW,318,4.0,4.0,56,0.00,,,0.00,545.00,VWS V14.01,2013-03-08 14:46:00,
2013-03-08 09:51:00,42.0,27.0,30.32,NNE,19,8.0,10.0,55,0.00,,,0.00,559.00,VWS V14.01,2013-03-08 14:51:00,
2013-03-08 09:56:00,42.3,27.3,30.32,NNE,30,4.0,8.0,55,0.00,,,0.00,575.00,VWS V14.01,2013-03-08 14:56:00,
2013-03-08 10:01:00,42.8,27.3,30.32,NNW,347,1.0,2.0,54,0.00,,,0.00,594.00,VWS V14.01,2013-03-08 15:01:00,
2013-03-08 10:06:00,43.2,26.8,30.31,WSW,246,7.0,7.0,52,0.00,,,0.00,603.00,VWS V14.01,2013-03-08 15:06:00,
2013-03-08 10:11:00,43.6,27.6,30.31,NW,318,2.0,3.0,53,0.00,,,0.00,621.00,VWS V14.01,2013-03-08 15:11:00,
2013-03-08 10:16:00,44.0,27.0,30.32,NNE,13,13.0,13.0,51,0.00,,,0.00,635.00,VWS V14.01,2013-03-08 15:16:00,
2013-03-08 10:21:00,44.1,26.7,30.32,NNW,342,5.0,6.0,50,0.00,,,0.00,652.00,VWS V14.01,2013-03-08 15:21:00,
2013-03-08 10:26:00,44.1,26.2,30.31,NNE,17,4.0,8.0,49,0.00,,,0.00,664.00,VWS V14.01,2013-03-08 15:26:00,
2013-03-08 10:31:00,44.4,26.5,30.31,North,360,4.0,4.0,49,0.00,,,0.00,675.00,VWS V14.01,2013-03-08 15:31:00,
2013-03-08 10:36:00,44.6,26.6,30.31,NNW,329,4.0,5.0,49,0.00,,,0.00,682.00,VWS V14.01,2013-03-08 15:36:00,
2013-03-08 10:41:00,45.0,26.0,30.31,NNE,26,7.0,11.0,47,0.00,,,0.00,700.00,VWS V14.01,2013-03-08 15:41:00,
2013-03-08 10:46:00,44.7,25.7,30.31,North,360,11.0,12.0,47,0.00,,,0.00,698.00,VWS V14.01,2013-03-08 15:46:00,
2013-03-08 10:51:00,44.7,25.7,30.31,NNW,348,7.0,7.0,47,0.00,,,0.00,721.00,VWS V14.01,2013-03-08 15:51:00,
2013-03-08 10:56:00,45.0,26.0,30.31,WNW,282,4.0,5.0,47,0.00,,,0.00,726.00,VWS V14.01,2013-03-08 15:56:00,
2013-03-08 11:01:00,45.7,25.6,30.31,NNW,330,4.0,5.0,45,0.00,,,0.00,735.00,VWS V14.01,2013-03-08 16:01:00,
2013-03-08 11:06:00,46.2,26.6,30.30,WNW,292,3.0,7.0,46,0.00,,,0.00,738.00,VWS V14.01,2013-03-08 16:06:00,
2013-03-08 11:11:00,46.5,26.3,30.30,SSW,207,3.0,3.0,45,0.00,,,0.00,747.00,VWS V14.01,2013-03-08 16:11:00,
2013-03-08 11:16:00,47.1,25.8,30.31,NE,38,5.0,6.0,43,0.00,,,0.00,754.00,VWS V14.01,2013-03-08 16:16:00,
2013-03-08 11:21:00,46.8,24.9,30.30,North,5,4.0,4.0,42,0.00,,,0.00,763.00,VWS V14.01,2013-03-08 16:21:00,
2013-03-08 11:26:00,47.0,25.7,30.30,NW,315,3.0,7.0,43,0.00,,,0.00,772.00,VWS V14.01,2013-03-08 16:26:00,
2013-03-08 11:31:00,47.3,26.0,30.30,ENE,57,8.0,8.0,43,0.00,,,0.00,777.00,VWS V14.01,2013-03-08 16:31:00,
2013-03-08 11:36:00,47.8,25.8,30.30,NNW,348,1.0,4.0,42,0.00,,,0.00,784.00,VWS V14.01,2013-03-08 16:36:00,
2013-03-08 11:41:00,48.2,26.2,30.29,NNE,18,0.0,5.0,42,0.00,,,0.00,788.00,VWS V14.01,2013-03-08 16:41:00,
2013-03-08 11:46:00,48.2,25.6,30.29,WSW,258,10.0,17.0,41,0.00,,,0.00,802.00,VWS V14.01,2013-03-08 16:46:00,
2013-03-08 11:51:00,48.4,26.4,30.29,West,261,6.0,6.0,42,0.00,,,0.00,798.00,VWS V14.01,2013-03-08 16:51:00,
2013-03-08 11:56:00,48.1,24.9,30.29,WSW,257,1.0,4.0,40,0.00,,,0.00,802.00,VWS V14.01,2013-03-08 16:56:00,
2013-03-08 12:01:00,48.7,25.5,30.29,ENE,58,3.0,4.0,40,0.00,,,0.00,805.00,VWS V14.01,2013-03-08 17:01:00,
2013-03-08 12:06:00,49.5,24.3,30.29,NNE,24,2.0,4.0,37,0.00,,,0.00,809.00,VWS V14.01,2013-03-08 17:06:00,
2013-03-08 12:11:00,50.3,26.3,30.29,West,275,1.0,2.0,39,0.00,,,0.00,819.00,VWS V14.01,2013-03-08 17:11:00,
2013-03-08 12:16:00,50.3,25.0,30.29,NE,45,4.0,5.0,37,0.00,,,0.00,810.00,VWS V14.01,2013-03-08 17:16:00,
2013-03-08 12:21:00,50.6,25.3,30.28,West,272,1.0,5.0,37,0.00,,,0.00,812.00,VWS V14.01,2013-03-08 17:21:00,
2013-03-08 12:26:00,51.2,27.1,30.29,WSW,237,6.0,9.0,39,0.00,,,0.00,821.00,VWS V14.01,2013-03-08 17:26:00,
2013-03-08 12:31:00,51.0,26.3,30.28,NNW,340,5.0,7.0,38,0.00,,,0.00,814.00,VWS V14.01,2013-03-08 17:31:00,
2013-03-08 12:36:00,50.5,25.9,30.28,NNE,13,4.0,7.0,38,0.00,,,0.00,816.00,VWS V14.01,2013-03-08 17:36:00,
2013-03-08 12:41:00,50.3,25.0,30.28,NW,319,4.0,7.0,37,0.00,,,0.00,816.00,VWS V14.01,2013-03-08 17:41:00,
2013-03-08 12:46:00,50.6,25.3,30.27,WSW,252,4.0,8.0,37,0.00,,,0.00,817.00,VWS V14.01,2013-03-08 17:46:00,
2013-03-08 12:51:00,50.5,23.9,30.27,SW,220,4.0,6.0,35,0.00,,,0.00,817.00,VWS V14.01,2013-03-08 17:51:00,
2013-03-08 12:56:00,50.4,25.1,30.26,NW,313,2.0,8.0,37,0.00,,,0.00,812.00,VWS V14.01,2013-03-08 17:56:00,
2013-03-08 13:01:00,51.2,24.5,30.26,NW,307,3.0,6.0,35,0.00,,,0.00,814.00,VWS V14.01,2013-03-08 18:01:00,
2013-03-08 13:06:00,51.4,25.4,30.25,WNW,294,4.0,5.0,36,0.00,,,0.00,814.00,VWS V14.01,2013-03-08 18:06:00,
2013-03-08 13:11:00,51.7,25.0,30.25,NNE,16,5.0,6.0,35,0.00,,,0.00,810.00,VWS V14.01,2013-03-08 18:11:00,
2013-03-08 13:16:00,51.9,24.4,30.25,WNW,297,4.0,5.0,34,0.00,,,0.00,807.00,VWS V14.01,2013-03-08 18:16:00,
2013-03-08 13:21:00,52.0,23.8,30.24,NW,323,1.0,3.0,33,0.00,,,0.00,805.00,VWS V14.01,2013-03-08 18:21:00,
2013-03-08 13:26:00,52.1,24.6,30.25,SSW,213,5.0,5.0,34,0.00,,,0.00,795.00,VWS V14.01,2013-03-08 18:26:00,
2013-03-08 13:31:00,52.5,25.0,30.24,NW,319,2.0,4.0,34,0.00,,,0.00,796.00,VWS V14.01,2013-03-08 18:31:00,
2013-03-08 13:36:00,52.5,23.5,30.23,North,11,4.0,12.0,32,0.00,,,0.00,789.00,VWS V14.01,2013-03-08 18:36:00,
2013-03-08 13:41:00,52.2,24.7,30.23,WSW,239,6.0,9.0,34,0.00,,,0.00,786.00,VWS V14.01,2013-03-08 18:41:00,
2013-03-08 13:46:00,52.9,25.3,30.23,NW,325,4.0,4.0,34,0.00,,,0.00,775.00,VWS V14.01,2013-03-08 18:46:00,
2013-03-08 13:51:00,53.6,25.2,30.23,NNW,331,3.0,7.0,33,0.00,,,0.00,772.00,VWS V14.01,2013-03-08 18:51:00,
2013-03-08 13:56:00,53.7,23.8,30.22,NNW,344,2.0,4.0,31,0.00,,,0.00,763.00,VWS V14.01,2013-03-08 18:56:00,
2013-03-08 14:01:00,53.6,24.5,30.22,NNE,27,9.0,11.0,32,0.00,,,0.00,756.00,VWS V14.01,2013-03-08 19:01:00,
2013-03-08 14:06:00,52.9,24.6,30.22,NW,326,1.0,9.0,33,0.00,,,0.00,744.00,VWS V14.01,2013-03-08 19:06:00,
2013-03-08 14:11:00,53.5,25.1,30.22,WSW,256,6.0,6.0,33,0.00,,,0.00,733.00,VWS V14.01,2013-03-08 19:11:00,
2013-03-08 14:16:00,53.5,25.1,30.22,West,265,5.0,10.0,33,0.00,,,0.00,728.00,VWS V14.01,2013-03-08 19:16:00,
2013-03-08 14:21:00,53.7,25.3,30.22,NNE,32,3.0,4.0,33,0.00,,,0.00,715.00,VWS V14.01,2013-03-08 19:21:00,
2013-03-08 14:26:00,54.0,24.1,30.22,WSW,253,4.0,6.0,31,0.00,,,0.00,705.00,VWS V14.01,2013-03-08 19:26:00,
2013-03-08 14:31:00,53.9,24.7,30.22,NW,318,3.0,5.0,32,0.00,,,0.00,700.00,VWS V14.01,2013-03-08 19:31:00,
2013-03-08 14:36:00,53.8,25.4,30.22,West,279,1.0,3.0,33,0.00,,,0.00,687.00,VWS V14.01,2013-03-08 19:36:00,
2013-03-08 14:41:00,54.4,25.2,30.22,NW,311,2.0,3.0,32,0.00,,,0.00,679.00,VWS V14.01,2013-03-08 19:41:00,
2013-03-08 14:46:00,54.6,25.4,30.22,North,9,4.0,4.0,32,0.00,,,0.00,666.00,VWS V14.01,2013-03-08 19:46:00,
2013-03-08 14:51:00,54.7,23.9,30.22,North,11,9.0,10.0,30,0.00,,,0.00,656.00,VWS V14.01,2013-03-08 19:51:00,
2013-03-08 14:56:00,54.4,25.2,30.22,WSW,250,2.0,4.0,32,0.00,,,0.00,647.00,VWS V14.01,2013-03-08 19:56:00,
2013-03-08 15:01:00,54.6,25.4,30.22,North,5,9.0,9.0,32,0.00,,,0.00,631.00,VWS V14.01,2013-03-08 20:01:00,
2013-03-08 15:06:00,54.1,24.2,30.22,NNW,348,3.0,3.0,31,0.00,,,0.00,622.00,VWS V14.01,2013-03-08 20:06:00,
2013-03-08 15:11:00,54.2,24.2,30.22,NNW,336,0.0,1.0,31,0.00,,,0.00,606.00,VWS V14.01,2013-03-08 20:11:00,
2013-03-08 15:16:00,54.5,23.7,30.22,North,355,3.0,9.0,30,0.00,,,0.00,594.00,VWS V14.01,2013-03-08 20:16:00,
2013-03-08 15:21:00,54.8,24.8,30.22,WNW,301,3.0,5.0,31,0.00,,,0.00,580.00,VWS V14.01,2013-03-08 20:21:00,
2013-03-08 15:26:00,55.2,25.1,30.22,NNW,336,2.0,2.0,31,0.00,,,0.00,564.00,VWS V14.01,2013-03-08 20:26:00,
2013-03-08 15:31:00,55.3,24.4,30.22,NW,319,5.0,9.0,30,0.00,,,0.00,548.00,VWS V14.01,2013-03-08 20:31:00,
2013-03-08 15:36:00,55.5,24.6,30.22,WNW,291,0.0,2.0,30,0.00,,,0.00,536.00,VWS V14.01,2013-03-08 20:36:00,
2013-03-08 15:41:00,55.3,24.4,30.22,WNW,302,1.0,4.0,30,0.00,,,0.00,524.00,VWS V14.01,2013-03-08 20:41:00,
2013-03-08 15:46:00,55.5,24.6,30.22,NNE,13,2.0,4.0,30,0.00,,,0.00,508.00,VWS V14.01,2013-03-08 20:46:00,
2013-03-08 15:51:00,55.3,24.4,30.22,NNE,25,4.0,4.0,30,0.00,,,0.00,492.00,VWS V14.01,2013-03-08 20:51:00,
2013-03-08 15:56:00,55.2,25.1,30.22,WNW,294,3.0,3.0,31,0.00,,,0.00,480.00,VWS V14.01,2013-03-08 20:56:00,
2013-03-08 16:01:00,55.4,25.3,30.22,North,355,1.0,5.0,31,0.00,,,0.00,461.00,VWS V14.01,2013-03-08 21:01:00,
2013-03-08 16:06:00,55.7,25.5,30.22,NE,38,5.0,6.0,31,0.00,,,0.00,441.00,VWS V14.01,2013-03-08 21:06:00,
2013-03-08 16:11:00,55.8,25.6,30.22,NW,320,2.0,5.0,31,0.00,,,0.00,427.00,VWS V14.01,2013-03-08 21:11:00,
2013-03-08 16:16:00,56.0,25.0,30.22,NNW,333,0.0,3.0,30,0.00,,,0.00,411.00,VWS V14.01,2013-03-08 21:16:00,
2013-03-08 16:21:00,56.0,25.8,30.22,NNW,333,4.0,4.0,31,0.00,,,0.00,394.00,VWS V14.01,2013-03-08 21:21:00,
2013-03-08 16:26:00,55.8,24.9,30.23,SW,231,3.0,4.0,30,0.00,,,0.00,376.00,VWS V14.01,2013-03-08 21:26:00,
2013-03-08 16:31:00,55.7,25.5,30.22,NNW,338,2.0,4.0,31,0.00,,,0.00,355.00,VWS V14.01,2013-03-08 21:31:00,
2013-03-08 16:36:00,55.6,26.2,30.23,North,360,3.0,3.0,32,0.00,,,0.00,338.00,VWS V14.01,2013-03-08 21:36:00,
2013-03-08 16:41:00,55.4,25.3,30.23,WSW,257,2.0,5.0,31,0.00,,,0.00,318.00,VWS V14.01,2013-03-08 21:41:00,
2013-03-08 16:46:00,55.5,24.6,30.23,NW,323,4.0,6.0,30,0.00,,,0.00,301.00,VWS V14.01,2013-03-08 21:46:00,
2013-03-08 16:51:00,55.4,26.8,30.23,WNW,303,0.0,2.0,33,0.00,,,0.00,234.00,VWS V14.01,2013-03-08 21:51:00,
2013-03-08 16:56:00,55.3,25.2,30.23,NNE,21,2.0,3.0,31,0.00,,,0.00,181.00,VWS V14.01,2013-03-08 21:56:00,
2013-03-08 17:01:00,55.2,25.1,30.24,NNE,27,1.0,2.0,31,0.00,,,0.00,160.00,VWS V14.01,2013-03-08 22:01:00,
2013-03-08 17:06:00,55.0,24.2,30.24,NNE,25,3.0,4.0,30,0.00,,,0.00,104.00,VWS V14.01,2013-03-08 22:06:00,
2013-03-08 17:11:00,54.6,24.6,30.24,NW,310,4.0,4.0,31,0.00,,,0.00,105.00,VWS V14.01,2013-03-08 22:11:00,
2013-03-08 17:16:00,54.2,25.0,30.24,NNE,22,4.0,4.0,32,0.00,,,0.00,88.00,VWS V14.01,2013-03-08 22:16:00,
2013-03-08 17:21:00,53.9,24.7,30.24,North,5,1.0,2.0,32,0.00,,,0.00,62.00,VWS V14.01,2013-03-08 22:21:00,
2013-03-08 17:26:00,53.7,24.6,30.24,NNE,32,5.0,5.0,32,0.00,,,0.00,62.00,VWS V14.01,2013-03-08 22:26:00,
2013-03-08 17:31:00,53.5,25.1,30.24,NW,323,0.0,3.0,33,0.00,,,0.00,51.00,VWS V14.01,2013-03-08 22:31:00,
2013-03-08 17:36:00,53.3,25.0,30.24,North,5,4.0,4.0,33,0.00,,,0.00,32.00,VWS V14.01,2013-03-08 22:36:00,
2013-03-08 17:41:00,53.0,24.7,30.24,North,350,3.0,4.0,33,0.00,,,0.00,30.00,VWS V14.01,2013-03-08 22:41:00,
2013-03-08 17:46:00,52.7,24.4,30.24,NNE,24,4.0,5.0,33,0.00,,,0.00,26.00,VWS V14.01,2013-03-08 22:46:00,
2013-03-08 17:51:00,52.5,25.0,30.24,NNW,340,0.0,2.0,34,0.00,,,0.00,25.00,VWS V14.01,2013-03-08 22:51:00,
2013-03-08 17:56:00,52.3,24.8,30.24,NNE,20,2.0,2.0,34,0.00,,,0.00,21.00,VWS V14.01,2013-03-08 22:56:00,
2013-03-08 18:01:00,52.1,24.6,30.24,NNE,12,4.0,4.0,34,0.00,,,0.00,18.00,VWS V14.01,2013-03-08 23:01:00,
2013-03-08 18:06:00,51.9,25.1,30.24,North,5,2.0,3.0,35,0.00,,,0.00,14.00,VWS V14.01,2013-03-08 23:06:00,
2013-03-08 18:11:00,51.6,24.9,30.24,North,355,5.0,5.0,35,0.00,,,0.00,11.00,VWS V14.01,2013-03-08 23:11:00,
2013-03-08 18:16:00,51.3,25.3,30.24,NNE,12,6.0,8.0,36,0.00,,,0.00,7.00,VWS V14.01,2013-03-08 23:16:00,
2013-03-08 18:21:00,51.1,25.1,30.24,North,5,0.0,1.0,36,0.00,,,0.00,5.00,VWS V14.01,2013-03-08 23:21:00,
2013-03-08 18:26:00,50.9,25.6,30.24,NNE,31,2.0,4.0,37,0.00,,,0.00,0.00,VWS V14.01,2013-03-08 23:26:00,
2013-03-08 18:31:00,50.6,25.3,30.24,NNE,14,1.0,1.0,37,0.00,,,0.00,0.00,VWS V14.01,2013-03-08 23:31:00,
2013-03-08 18:36:00,50.3,25.7,30.25,NNE,19,3.0,5.0,38,0.00,,,0.00,0.00,VWS V14.01,2013-03-08 23:36:00,
2013-03-08 18:41:00,50.0,25.4,30.25,NNE,16,0.0,2.0,38,0.00,,,0.00,0.00,VWS V14.01,2013-03-08 23:41:00,
2013-03-08 18:46:00,49.8,25.9,30.25,NE,50,4.0,5.0,39,0.00,,,0.00,0.00,VWS V14.01,2013-03-08 23:46:00,
2013-03-08 18:51:00,49.5,25.6,30.25,North,5,4.0,6.0,39,0.00,,,0.00,0.00,VWS V14.01,2013-03-08 23:51:00,
2013-03-08 18:56:00,49.4,26.1,30.25,NNE,23,2.0,3.0,40,0.00,,,0.00,0.00,VWS V14.01,2013-03-08 23:56:00,
2013-03-08 19:01:00,49.2,25.9,30.26,NNE,17,1.0,1.0,40,0.00,,,0.00,0.00,VWS V14.01,2013-03-09 00:01:00,
2013-03-08 19:06:00,48.9,25.7,30.25,North,10,0.0,1.0,40,0.00,,,0.00,0.00,VWS V14.01,2013-03-09 00:06:00,
2013-03-08 19:11:00,48.6,26.0,30.26,North,10,2.0,2.0,41,0.00,,,0.00,0.00,VWS V14.01,2013-03-09 00:11:00,
2013-03-08 19:16:00,48.2,26.2,30.26,NNW,341,1.0,2.0,42,0.00,,,0.00,0.00,VWS V14.01,2013-03-09 00:16:00,
2013-03-08 19:21:00,47.9,26.5,30.26,North,5,2.0,3.0,43,0.00,,,0.00,0.00,VWS V14.01,2013-03-09 00:21:00,
2013-03-08 19:26:00,47.7,26.3,30.26,North,5,0.0,1.0,43,0.00,,,0.00,0.00,VWS V14.01,2013-03-09 00:26:00,
2013-03-08 19:31:00,47.5,25.6,30.25,NNE,24,0.0,0.0,42,0.00,,,0.00,0.00,VWS V14.01,2013-03-09 00:31:00,
2013-03-08 19:36:00,47.4,26.0,30.26,North,10,0.0,2.0,43,0.00,,,0.00,0.00,VWS V14.01,2013-03-09 00:36:00,
2013-03-08 19:41:00,47.3,26.0,30.25,NNW,329,1.0,2.0,43,0.00,,,0.00,0.00,VWS V14.01,2013-03-09 00:41:00,
2013-03-08 19:46:00,47.1,25.8,30.25,NNW,348,2.0,2.0,43,0.00,,,0.00,0.00,VWS V14.01,2013-03-09 00:46:00,
2013-03-08 19:51:00,47.0,26.2,30.26,North,360,0.0,0.0,44,0.00,,,0.00,0.00,VWS V14.01,2013-03-09 00:51:00,
2013-03-08 19:56:00,46.8,27.1,30.26,North,360,0.0,0.0,46,0.00,,,0.00,0.00,VWS V14.01,2013-03-09 00:56:00,
2013-03-08 20:01:00,46.6,26.4,30.26,North,355,0.0,0.0,45,0.00,,,0.00,0.00,VWS V14.01,2013-03-09 01:01:00,
2013-03-08 20:06:00,46.4,26.8,30.26,North,355,0.0,0.0,46,0.00,,,0.00,0.00,VWS V14.01,2013-03-09 01:06:00,
2013-03-08 20:11:00,46.2,27.6,30.26,North,355,1.0,1.0,48,0.00,,,0.00,0.00,VWS V14.01,2013-03-09 01:11:00,
2013-03-08 20:16:00,45.9,26.8,30.26,WNW,294,0.0,0.0,47,0.00,,,0.00,0.00,VWS V14.01,2013-03-09 01:16:00,
2013-03-08 20:21:00,45.5,27.0,30.26,WNW,294,0.0,0.0,48,0.00,,,0.00,0.00,VWS V14.01,2013-03-09 01:21:00,
2013-03-08 20:26:00,45.2,28.2,30.26,WNW,294,0.0,0.0,51,0.00,,,0.00,0.00,VWS V14.01,2013-03-09 01:26:00,
2013-03-08 20:31:00,44.7,27.7,30.27,WNW,294,0.0,1.0,51,0.00,,,0.00,0.00,VWS V14.01,2013-03-09 01:31:00,
2013-03-08 20:36:00,44.3,27.8,30.27,WNW,294,0.0,0.0,52,0.00,,,0.00,0.00,VWS V14.01,2013-03-09 01:36:00,
2013-03-08 20:41:00,44.0,27.5,30.27,WNW,294,0.0,0.0,52,0.00,,,0.00,0.00,VWS V14.01,2013-03-09 01:41:00,
2013-03-08 20:46:00,43.8,28.2,30.27,WNW,294,1.0,1.0,54,0.00,,,0.00,0.00,VWS V14.01,2013-03-09 01:46:00,
2013-03-08 20:51:00,43.3,27.3,30.27,WNW,294,1.0,2.0,53,0.00,,,0.00,0.00,VWS V14.01,2013-03-09 01:51:00,
2013-03-08 20:56:00,42.9,27.4,30.28,NNE,28,0.0,0.0,54,0.00,,,0.00,0.00,VWS V14.01,2013-03-09 01:56:00,
2013-03-08 21:01:00,42.6,27.6,30.28,NNE,28,1.0,1.0,55,0.00,,,0.00,0.00,VWS V14.01,2013-03-09 02:01:00,
2013-03-08 21:06:00,42.3,27.7,30.28,NNE,28,1.0,1.0,56,0.00,,,0.00,0.00,VWS V14.01,2013-03-09 02:06:00,
2013-03-08 21:11:00,42.1,27.5,30.29,North,355,0.0,1.0,56,0.00,,,0.00,0.00,VWS V14.01,2013-03-09 02:11:00,
2013-03-08 21:16:00,42.0,27.9,30.29,North,355,0.0,0.0,57,0.00,,,0.00,0.00,VWS V14.01,2013-03-09 02:16:00,
2013-03-08 21:21:00,41.9,27.4,30.29,North,355,0.0,0.0,56,0.00,,,0.00,0.00,VWS V14.01,2013-03-09 02:21:00,
2013-03-08 21:26:00,41.9,27.4,30.30,NE,44,0.0,1.0,56,0.00,,,0.00,0.00,VWS V14.01,2013-03-09 02:26:00,
2013-03-08 21:31:00,41.8,27.7,30.30,NE,44,0.0,0.0,57,0.00,,,0.00,0.00,VWS V14.01,2013-03-09 02:31:00,
2013-03-08 21:36:00,41.8,28.1,30.30,NE,44,0.0,0.0,58,0.00,,,0.00,0.00,VWS V14.01,2013-03-09 02:36:00,
2013-03-08 21:41:00,41.7,28.0,30.30,NE,44,0.0,0.0,58,0.00,,,0.00,0.00,VWS V14.01,2013-03-09 02:41:00,
2013-03-08 21:46:00,41.4,27.8,30.29,NE,44,0.0,1.0,58,0.00,,,0.00,0.00,VWS V14.01,2013-03-09 02:46:00,
2013-03-08 21:51:00,41.1,27.9,30.30,NE,44,0.0,0.0,59,0.00,,,0.00,0.00,VWS V14.01,2013-03-09 02:51:00,
2013-03-08 21:56:00,41.0,29.0,30.30,NE,44,0.0,0.0,62,0.00,,,0.00,0.00,VWS V14.01,2013-03-09 02:56:00,
2013-03-08 22:01:00,40.7,29.1,30.30,NE,44,0.0,0.0,63,0.00,,,0.00,0.00,VWS V14.01,2013-03-09 03:01:00,
2013-03-08 22:06:00,40.4,28.4,30.30,NE,44,0.0,1.0,62,0.00,,,0.00,0.00,VWS V14.01,2013-03-09 03:06:00,
2013-03-08 22:11:00,40.0,28.0,30.30,NE,44,3.0,3.0,62,0.00,,,0.00,0.00,VWS V14.01,2013-03-09 03:11:00,
2013-03-08 22:16:00,39.7,28.1,30.30,NE,44,0.0,0.0,63,0.00,,,0.00,0.00,VWS V14.01,2013-03-09 03:16:00,
2013-03-08 22:21:00,39.5,28.0,30.31,NE,44,0.0,0.0,63,0.00,,,0.00,0.00,VWS V14.01,2013-03-09 03:21:00,
2013-03-08 22:26:00,39.3,28.9,30.31,NE,44,0.0,0.0,66,0.00,,,0.00,0.00,VWS V14.01,2013-03-09 03:26:00,
2013-03-08 22:31:00,39.1,28.3,30.31,NE,44,0.0,0.0,65,0.00,,,0.00,0.00,VWS V14.01,2013-03-09 03:31:00,
2013-03-08 22:36:00,38.9,27.8,30.32,NE,44,0.0,0.0,64,0.00,,,0.00,0.00,VWS V14.01,2013-03-09 03:36:00,
2013-03-08 22:41:00,38.7,28.7,30.33,NE,44,0.0,0.0,67,0.00,,,0.00,0.00,VWS V14.01,2013-03-09 03:41:00,
2013-03-08 22:46:00,38.5,28.5,30.33,NE,44,0.0,0.0,67,0.00,,,0.00,0.00,VWS V14.01,2013-03-09 03:46:00,
2013-03-08 22:51:00,38.3,28.3,30.33,NE,44,0.0,0.0,67,0.00,,,0.00,0.00,VWS V14.01,2013-03-09 03:51:00,
2013-03-08 22:56:00,38.0,28.8,30.32,NE,44,0.0,0.0,69,0.00,,,0.00,0.00,VWS V14.01,2013-03-09 03:56:00,
2013-03-08 23:01:00,37.8,28.9,30.33,NE,44,0.0,0.0,70,0.00,,,0.00,0.00,VWS V14.01,2013-03-09 04:01:00,
2013-03-08 23:06:00,37.6,29.1,30.33,NE,44,0.0,0.0,71,0.00,,,0.00,0.00,VWS V14.01,2013-03-09 04:06:00,
2013-03-08 23:11:00,37.4,29.2,30.33,NE,44,1.0,1.0,72,0.00,,,0.00,0.00,VWS V14.01,2013-03-09 04:11:00,
2013-03-08 23:16:00,37.1,28.6,30.33,NE,44,0.0,0.0,71,0.00,,,0.00,0.00,VWS V14.01,2013-03-09 04:16:00,
2013-03-08 23:21:00,36.9,28.4,30.33,NE,44,0.0,0.0,71,0.00,,,0.00,0.00,VWS V14.01,2013-03-09 04:21:00,
2013-03-08 23:26:00,36.7,28.9,30.33,NE,44,0.0,0.0,73,0.00,,,0.00,0.00,VWS V14.01,2013-03-09 04:26:00,
2013-03-08 23:31:00,36.5,28.7,30.33,NE,44,0.0,0.0,73,0.00,,,0.00,0.00,VWS V14.01,2013-03-09 04:31:00,
2013-03-08 23:36:00,36.4,28.6,30.33,NE,44,0.0,0.0,73,0.00,,,0.00,0.00,VWS V14.01,2013-03-09 04:36:00,
2013-03-08 23:41:00,36.2,28.4,30.33,NE,44,0.0,0.0,73,0.00,,,0.00,0.00,VWS V14.01,2013-03-09 04:41:00,
2013-03-08 23:46:00,36.0,28.2,30.33,NE,44,0.0,0.0,73,0.00,,,0.00,0.00,VWS V14.01,2013-03-09 04:46:00,
2013-03-08 23:51:00,35.9,28.1,30.32,NE,44,0.0,0.0,73,0.00,,,0.00,0.00,VWS V14.01,2013-03-09 04:51:00,
2013-03-08 23:56:00,35.6,28.1,30.33,NE,44,0.0,0.0,74,0.00,,,0.00,0.00,VWS V14.01,2013-03-09 04:56:00,